Location: Corralito
(14.1667°N, 87.1833°W)
Time: 21:39:09
(UTC+00:00)

Nadezhda 4 Rocket - Pass Details

Date: 09 October 2020
Orbit: 949 x 992 km, 82.9° (Epoch: 26 October)

Event Time Altitude Azimuth Distance (km) Brightness Sun altitude
Rises 10:56:54 0° 153° (SSE) 3,650 7.5 -11.0°
Reaches altitude 10° 10:59:59 10° 139° (SE) 2,696 7.0 -10.3°
Maximum altitude 11:04:35 22° 90° (E) 1,950 6.8 -9.2°
Drops below altitude 10° 11:09:08 10° 41° (NE) 2,678 6.8 -8.1°
Sets 11:12:10 0° 27° (NNE) 3,619 7.3 -7.3°
